カタログに戻る

BUFENG YI HAO B XING

運用中通信VLEO
NORAD 44314·PAYLOAD·🇨🇳 China
この衛星名は、まだ公式ソースで確認されていません。

打ち上げ Jun 5, 2019 から Yellow Sea Launch Area

Loading…

次のパス (今後24時間)

TLE

最新Source: Space-Track

元期: Sep 14, 2026, 07:11 UTC

1 44314U 19032E   26257.29954153  .00014817  00000-0  35578-3 0  9993
2 44314  44.9997 204.0117 0009096 135.7064 224.4553 15.41258027401819

AllMySatでBUFENG YI HAO B XINGをリアルタイム追跡

Download on the App Store